Weather History for Cairns, QU

Change the Weather History Date:

Friday, April 19, 2013

  Actual Average Record
Temperature  
Mean Temperature 77 °F -  
Max Temperature 86 °F 83 °F 87 °F (1998)
Min Temperature 68 °F 69 °F 64 °F (2008)
Cooling Degree Days 12    
Growing Degree Days 27 (Base 50)    
Moisture  
Dew Point 69 °F    
Average Humidity 76    
Maximum Humidity 94    
Minimum Humidity 52    
Precipitation  
Precipitation 0.00 in 0.20 in - ()
Sea Level Pressure  
Sea Level Pressure 29.90 in    
Wind  
Wind Speed 7 mph ()    
Max Wind Speed 15 mph    
Max Gust Speed -    
Visibility 7.3 miles    
Events      
Averages and records for this station are not official NWS values.
T = Trace of Precipitation, MM = Missing Value Source: Averaged Metar Reports

Daily Weather History Graph

Daily Weather History Graph

Search for Another Location

Airport:

Trip Planner

Search our weather history database for the weather conditions in past years. The results will help you decide how hot, cold, wet, or windy it might be!

Date:

Astronomy

Apr. 19, 2013 Rise Set
Actual Time 6:26 AM AEST 6:05 PM AEST
Civil Twilight 6:04 AM AEST 6:27 PM AEST
Nautical Twilight 5:38 AM AEST 6:53 PM AEST
Astronomical Twilight 5:13 AM AEST 7:18 PM AEST
Moon 1:12 PM AEST (4/19) 12:11 AM AEST (4/19)
Length of Visible Light 12h 23m
Length of Day
11h 39m
First Quarter, 56% of the Moon is Illuminated
Apr 19
First Quarter
Apr 26
Full
May 2
Last Quarter
May 10
New
May 18
First Quarter

Hourly Weather History & Observations

Time (AEST) Temp. Heat Index Dew Point Humidity Pressure Visibility Wind Dir Wind Speed Gust Speed Precip Events Conditions
12:00 AM 74 °F - 70 °F 83% 29.95 in - SSE 8.1 mph - -  
12:00 AM 73.4 °F - 69.8 °F 88% 29.95 in 6.2 mi SSE 8.1 mph - N/A   Partly Cloudy
12:30 AM 73.4 °F - 69.8 °F 88% 29.95 in 6.2 mi SSE 4.6 mph - N/A   Partly Cloudy
1:00 AM 74 °F - 69 °F 80% 29.94 in - SSW 4.6 mph - -  
1:00 AM 73.4 °F - 69.8 °F 88% 29.92 in 6.2 mi SSW 4.6 mph - N/A   Partly Cloudy
1:30 AM 75.2 °F - 69.8 °F 83% 29.92 in 6.2 mi South 3.5 mph - N/A   Partly Cloudy
2:00 AM 73.4 °F - 69.8 °F 88% 29.92 in 6.2 mi SE 10.4 mph - N/A   Partly Cloudy
2:30 AM 73.4 °F - 68.0 °F 83% 29.89 in 6.2 mi SSE 6.9 mph - N/A   Partly Cloudy
3:00 AM 75 °F - 68 °F 72% 29.90 in - SSW 3.5 mph - -  
3:00 AM 75.2 °F - 68.0 °F 78% 29.89 in 6.2 mi SSW 3.5 mph - N/A   Partly Cloudy
3:30 AM 71.6 °F - 68.0 °F 88% 29.89 in 6.2 mi SE 10.4 mph - N/A   Partly Cloudy
4:00 AM 71.6 °F - 68.0 °F 88% 29.89 in 6.2 mi SE 11.5 mph - N/A   Partly Cloudy
4:30 AM 71.6 °F - 68.0 °F 88% 29.89 in 6.2 mi SSE 10.4 mph - N/A   Partly Cloudy
5:00 AM 71.6 °F - 68.0 °F 88% 29.89 in 6.2 mi SSE 9.2 mph - N/A   Partly Cloudy
5:30 AM 71.6 °F - 66.2 °F 83% 29.89 in 6.2 mi SSE 9.2 mph - N/A   Partly Cloudy
6:00 AM 70 °F - 67 °F 88% 29.91 in 19 mi SW 3.5 mph - -   Partly Cloudy
6:00 AM 69.8 °F - 68.0 °F 94% 29.89 in 6.2 mi SW 3.5 mph - N/A   Partly Cloudy
6:30 AM 69.8 °F - 68.0 °F 94% 29.89 in 6.2 mi West 1.2 mph - N/A   Partly Cloudy
7:00 AM 70 °F - 68 °F 90% 29.93 in - WNW 1.2 mph - -  
7:00 AM 69.8 °F - 68.0 °F 94% 29.92 in 6.2 mi WNW 1.2 mph - N/A   Partly Cloudy
7:30 AM 73.4 °F - 68.0 °F 83% 29.92 in 6.2 mi SW 4.6 mph - N/A   Partly Cloudy
8:00 AM 73.4 °F - 68.0 °F 83% 29.92 in 6.2 mi SSE 12.7 mph - N/A   Partly Cloudy
8:30 AM 77.0 °F - 68.0 °F 74% 29.92 in 6.2 mi SE 10.4 mph - N/A   Partly Cloudy
9:00 AM 80 °F - 66 °F 54% 29.94 in 19 mi SSE 9.2 mph - -   Partly Cloudy
9:00 AM 80.6 °F 82.7 °F 66.2 °F 61% 29.92 in 6.2 mi SSE 9.2 mph - N/A   Partly Cloudy
9:30 AM 80.6 °F 83.2 °F 68.0 °F 65% 29.95 in 6.2 mi SSE 9.2 mph - N/A   Partly Cloudy
10:00 AM 82 °F - 69 °F 57% 29.95 in - SSE 8.1 mph - -  
10:00 AM 82.4 °F 86.3 °F 69.8 °F 66% 29.95 in 6.2 mi SSE 8.1 mph - N/A   Partly Cloudy
10:30 AM 84.2 °F 87.3 °F 68.0 °F 58% 29.92 in 6.2 mi SSE 8.1 mph - N/A   Partly Cloudy
11:00 AM 82.4 °F 85.4 °F 68.0 °F 62% 29.92 in 6.2 mi SE 9.2 mph - N/A   Partly Cloudy
11:30 AM 84.2 °F 87.3 °F 68.0 °F 58% 29.89 in 6.2 mi ESE 6.9 mph - N/A   Partly Cloudy
12:00 PM 84 °F - 69 °F 52% 29.89 in 19 mi NE 12.7 mph - -   Partly Cloudy
12:00 PM 84.2 °F 88.4 °F 69.8 °F 62% 29.89 in 6.2 mi NE 12.7 mph - N/A   Partly Cloudy
12:30 PM 86.0 °F 89.4 °F 68.0 °F 55% 29.89 in 6.2 mi NE 10.4 mph - N/A   Partly Cloudy
1:00 PM 84.2 °F 88.4 °F 69.8 °F 62% 29.86 in 6.2 mi ENE 15.0 mph - N/A   Partly Cloudy
1:30 PM 84.2 °F 88.4 °F 69.8 °F 62% 29.86 in 6.2 mi ENE 15.0 mph - N/A   Partly Cloudy
2:00 PM 84.2 °F 88.4 °F 69.8 °F 62% 29.86 in 6.2 mi ENE 13.8 mph - N/A   Partly Cloudy
2:30 PM 84.2 °F 88.4 °F 69.8 °F 62% 29.83 in 6.2 mi ENE 12.7 mph - N/A   Partly Cloudy
3:00 PM 84 °F - 71 °F 57% 29.84 in 19 mi ENE 13.8 mph - -   Partly Cloudy
3:00 PM 84.2 °F 89.6 °F 71.6 °F 66% 29.83 in 6.2 mi ENE 13.8 mph - N/A   Partly Cloudy
3:30 PM 82.4 °F 86.3 °F 69.8 °F 66% 29.83 in 6.2 mi ENE 12.7 mph - N/A   Partly Cloudy
4:00 PM 83 °F - 69 °F 55% 29.85 in - NE 10.4 mph - -  
4:00 PM 82.4 °F 86.3 °F 69.8 °F 66% 29.83 in 6.2 mi NE 10.4 mph - N/A   Partly Cloudy
4:30 PM 82.4 °F 86.3 °F 69.8 °F 66% 29.83 in 6.2 mi NE 10.4 mph - N/A   Partly Cloudy
5:00 PM 82.4 °F 85.4 °F 68.0 °F 62% 29.83 in 6.2 mi NE 6.9 mph - N/A   Partly Cloudy
5:30 PM 80.6 °F 83.9 °F 69.8 °F 70% 29.86 in 6.2 mi ENE 8.1 mph - N/A   Partly Cloudy
6:00 PM 79 °F - 71 °F 69% 29.86 in - ENE 8.1 mph - -  
6:00 PM 78.8 °F - 69.8 °F 74% 29.86 in 6.2 mi ENE 8.1 mph - N/A   Partly Cloudy
6:30 PM 77.0 °F - 71.6 °F 83% 29.86 in 6.2 mi NE 3.5 mph - N/A   Partly Cloudy
7:00 PM 77 °F - 70 °F 74% 29.88 in - West 6.9 mph - -  
7:00 PM 77.0 °F - 69.8 °F 78% 29.86 in 6.2 mi West 6.9 mph - N/A   Partly Cloudy
7:30 PM 77.0 °F - 69.8 °F 78% 29.89 in - WNW 2.3 mph - N/A   Clear
8:00 PM 77.0 °F - 69.8 °F 78% 29.89 in - NNE 4.6 mph - N/A   Clear
8:30 PM 75.2 °F - 69.8 °F 83% 29.92 in - South 5.8 mph - N/A   Clear
9:00 PM 76 °F - 70 °F 78% 29.92 in - WSW 3.5 mph - -  
9:00 PM 75.2 °F - 69.8 °F 83% 29.92 in - WSW 3.5 mph - N/A   Clear
9:30 PM 73.4 °F - 69.8 °F 88% 29.92 in - ESE 1.2 mph - N/A   Clear
10:00 PM 72 °F - 70 °F 91% 29.94 in - WNW 3.5 mph - -  
10:00 PM 71.6 °F - 69.8 °F 94% 29.92 in 6.2 mi WNW 3.5 mph - N/A   Partly Cloudy
10:30 PM 73.4 °F - 69.8 °F 88% 29.92 in 6.2 mi West 5.8 mph - N/A   Partly Cloudy
11:00 PM 73.4 °F - 69.8 °F 88% 29.92 in 6.2 mi West 5.8 mph - N/A   Partly Cloudy
11:30 PM 73.4 °F - 69.8 °F 88% 29.89 in 6.2 mi West 5.8 mph - N/A   Partly Cloudy